Weather History for Belmar-Farmingdale, NJ

Change the Weather History Date:

Wednesday, April 18, 2012

  Actual Average Record
Temperature  
Mean Temperature 56 °F -  
Max Temperature 62 °F 59 °F 84 °F (2002)
Min Temperature 51 °F 42 °F 32 °F (1997)
Degree Days  
Heating Degree Days 8    
Growing Degree Days 6 (Base 50)    
Moisture  
Dew Point 32 °F    
Average Humidity 42    
Maximum Humidity 62    
Minimum Humidity 31    
Precipitation  
Precipitation 0.00 in - - ()
Sea Level Pressure  
Sea Level Pressure 30.20 in    
Wind  
Wind Speed 8 mph (NE)    
Max Wind Speed 15 mph    
Max Gust Speed 24 mph    
Visibility 10 miles    
Events      
Averages and records for this station are not official NWS values.
T = Trace of Precipitation, MM = Missing Value Source: NWS Daily Summary

Daily Weather History Graph

Daily Weather History Graph

Search for Another Location

Airport:

Trip Planner

Search our weather history database for the weather conditions in past years. The results will help you decide how hot, cold, wet, or windy it might be!

Date:

Astronomy

Apr. 18, 2012 Rise Set
Actual Time 6:13 AM EDT 7:38 PM EDT
Civil Twilight 5:44 AM EDT 8:07 PM EDT
Nautical Twilight 5:10 AM EDT 8:41 PM EDT
Astronomical Twilight 4:34 AM EDT 9:17 PM EDT
Moon 4:37 AM EDT (4/18) 5:27 PM EDT (4/18)
Length of Visible Light 14h 22m
Length of Day
13h 25m
Waning Crescent, 6% of the Moon is Illuminated
Apr 18
Waning Crescent
Apr 21
New
Apr 29
First Quarter
May 5
Full
May 12
Last Quarter

Hourly Weather History & Observations

Time (EDT) Temp. Dew Point Humidity Pressure Visibility Wind Dir Wind Speed Gust Speed Precip Events Conditions
12:15 AM 60.8 °F 30.2 °F 31% 30.15 in 10.0 mi NNW 8.1 mph - N/A   Clear
12:35 AM 60.8 °F 30.2 °F 31% 30.15 in 10.0 mi North 8.1 mph - N/A   Clear
12:55 AM 60.8 °F 30.2 °F 31% 30.16 in 10.0 mi North 8.1 mph - N/A   Clear
1:15 AM 62.6 °F 33.8 °F 34% 30.15 in 10.0 mi North 12.7 mph 16.1 mph N/A   Clear
1:35 AM 62.6 °F 33.8 °F 34% 30.15 in 10.0 mi North 15.0 mph 19.6 mph N/A   Clear
1:55 AM 60.8 °F 32.0 °F 34% 30.16 in 10.0 mi NNE 12.7 mph 24.2 mph N/A   Clear
2:15 AM 60.8 °F 33.8 °F 36% 30.16 in 10.0 mi North 10.4 mph - N/A   Clear
2:35 AM 60.8 °F 33.8 °F 36% 30.16 in 10.0 mi North 10.4 mph - N/A   Clear
2:55 AM 59.0 °F 33.8 °F 39% 30.17 in 10.0 mi North 9.2 mph - N/A   Clear
3:15 AM 59.0 °F 33.8 °F 39% 30.17 in 10.0 mi North 9.2 mph - N/A   Clear
3:35 AM 57.2 °F 33.8 °F 41% 30.18 in 10.0 mi North 13.8 mph - N/A   Clear
3:55 AM 57.2 °F 30.2 °F 36% 30.18 in 10.0 mi North 11.5 mph 18.4 mph N/A   Clear
4:15 AM 57.2 °F 28.4 °F 33% 30.19 in 10.0 mi North 15.0 mph 19.6 mph N/A   Clear
4:35 AM 55.4 °F 26.6 °F 33% 30.20 in 10.0 mi North 13.8 mph 18.4 mph N/A   Clear
4:55 AM 55.4 °F 24.8 °F 31% 30.20 in 10.0 mi North 11.5 mph - N/A   Clear
5:15 AM 53.6 °F 24.8 °F 33% 30.21 in 10.0 mi NNW 8.1 mph - N/A   Clear
5:35 AM 53.6 °F 24.8 °F 33% 30.21 in 10.0 mi North 10.4 mph - N/A   Clear
5:55 AM 53.6 °F 24.8 °F 33% 30.21 in 10.0 mi North 10.4 mph - N/A   Clear
6:15 AM 51.8 °F 26.6 °F 38% 30.22 in 10.0 mi North 9.2 mph - N/A   Clear
6:35 AM 51.8 °F 26.6 °F 38% 30.22 in 10.0 mi North 6.9 mph - N/A   Mostly Cloudy
6:55 AM 51.8 °F 32.0 °F 47% 30.24 in 10.0 mi North 9.2 mph - N/A   Overcast
7:35 AM 51.8 °F 33.8 °F 50% 30.25 in 10.0 mi North 9.2 mph - N/A   Overcast
7:55 AM 51.8 °F 33.8 °F 50% 30.25 in 10.0 mi North 11.5 mph - N/A   Mostly Cloudy
8:15 AM 51.8 °F 33.8 °F 50% 30.26 in 10.0 mi North 6.9 mph - N/A   Clear
8:35 AM 53.6 °F 32.0 °F 44% 30.26 in 10.0 mi North 13.8 mph - N/A   Clear
8:55 AM 53.6 °F 30.2 °F 41% 30.26 in 10.0 mi NNE 10.4 mph - N/A   Clear
9:15 AM 53.6 °F 32.0 °F 44% 30.25 in 10.0 mi North 12.7 mph - N/A   Clear
9:35 AM 53.6 °F 30.2 °F 41% 30.25 in 10.0 mi NNE 11.5 mph - N/A   Clear
9:55 AM 55.4 °F 32.0 °F 41% 30.26 in 10.0 mi North 11.5 mph - N/A   Scattered Clouds
10:15 AM 55.4 °F 30.2 °F 38% 30.27 in 10.0 mi North 8.1 mph - N/A   Scattered Clouds
10:35 AM 55.4 °F 30.2 °F 38% 30.27 in 10.0 mi North 6.9 mph - N/A   Mostly Cloudy
10:55 AM 55.4 °F 32.0 °F 41% 30.26 in 10.0 mi Calm Calm - N/A   Scattered Clouds
11:15 AM 57.2 °F 32.0 °F 38% 30.25 in 10.0 mi Calm Calm - N/A   Mostly Cloudy
11:35 AM 57.2 °F 32.0 °F 38% 30.24 in 10.0 mi North 4.6 mph - N/A   Scattered Clouds
11:55 AM 57.2 °F 32.0 °F 38% 30.24 in 10.0 mi NE 5.8 mph - N/A   Mostly Cloudy
12:15 PM 59.0 °F 30.2 °F 34% 30.25 in 10.0 mi East 3.5 mph - N/A   Overcast
12:35 PM 59.0 °F 30.2 °F 34% 30.24 in 10.0 mi WSW 3.5 mph - N/A   Overcast
12:55 PM 60.8 °F 30.2 °F 31% 30.23 in 10.0 mi Calm Calm - N/A   Mostly Cloudy
1:15 PM 57.2 °F 28.4 °F 33% 30.22 in 10.0 mi ESE 8.1 mph - N/A   Mostly Cloudy
1:35 PM 55.4 °F 33.8 °F 44% 30.22 in 10.0 mi ESE 8.1 mph - N/A   Overcast
1:55 PM 55.4 °F 32.0 °F 41% 30.22 in 10.0 mi East 8.1 mph - N/A   Overcast
2:15 PM 55.4 °F 30.2 °F 38% 30.22 in 10.0 mi ESE 8.1 mph - N/A   Overcast
2:35 PM 55.4 °F 30.2 °F 38% 30.21 in 10.0 mi ESE 6.9 mph - N/A   Overcast
2:55 PM 55.4 °F 28.4 °F 36% 30.20 in 10.0 mi East 6.9 mph - N/A   Overcast
3:15 PM 55.4 °F 28.4 °F 36% 30.19 in 10.0 mi East 8.1 mph - N/A   Overcast
3:35 PM 55.4 °F 28.4 °F 36% 30.19 in 10.0 mi East 6.9 mph - N/A   Overcast
3:55 PM 55.4 °F 28.4 °F 36% 30.18 in 10.0 mi ESE 5.8 mph - N/A   Overcast
4:15 PM 57.2 °F 28.4 °F 33% 30.18 in 10.0 mi East 5.8 mph - N/A   Overcast
4:55 PM 55.4 °F 30.2 °F 38% 30.18 in 10.0 mi ESE 9.2 mph - N/A   Overcast
5:15 PM 55.4 °F 30.2 °F 38% 30.19 in 10.0 mi SE 8.1 mph - N/A   Overcast
5:35 PM 53.6 °F 33.8 °F 47% 30.19 in 10.0 mi SE 8.1 mph - N/A   Overcast
5:55 PM 53.6 °F 33.8 °F 47% 30.18 in 10.0 mi SSE 4.6 mph - N/A   Overcast
6:35 PM 53.6 °F 33.8 °F 47% 30.17 in 10.0 mi South 4.6 mph - N/A   Overcast
6:55 PM 53.6 °F 33.8 °F 47% 30.16 in 10.0 mi SSE 4.6 mph - N/A   Mostly Cloudy
7:15 PM 53.6 °F 33.8 °F 47% 30.16 in 10.0 mi SE 3.5 mph - N/A   Overcast
7:35 PM 53.6 °F 35.6 °F 51% 30.16 in 10.0 mi SSE 3.5 mph - N/A   Scattered Clouds
8:15 PM 51.8 °F 35.6 °F 54% 30.16 in 10.0 mi Calm Calm - N/A   Overcast
8:35 PM 51.8 °F 35.6 °F 54% 30.17 in 10.0 mi SSE 4.6 mph - N/A   Overcast
8:55 PM 51.8 °F 35.6 °F 54% 30.17 in 10.0 mi SSE 4.6 mph - N/A   Overcast
9:15 PM 51.8 °F 35.6 °F 54% 30.16 in 10.0 mi ESE 4.6 mph - N/A   Overcast
9:35 PM 51.8 °F 37.4 °F 58% 30.16 in 10.0 mi SE 3.5 mph - N/A   Overcast
9:55 PM 51.8 °F 37.4 °F 58% 30.16 in 10.0 mi SE 4.6 mph - N/A   Overcast
10:15 PM 51.8 °F 37.4 °F 58% 30.15 in 10.0 mi SSE 5.8 mph - N/A   Overcast
10:35 PM 51.8 °F 37.4 °F 58% 30.14 in 10.0 mi SSE 4.6 mph - N/A   Overcast
10:55 PM 51.8 °F 39.2 °F 62% 30.15 in 10.0 mi SSE 3.5 mph - N/A   Overcast
11:15 PM 51.8 °F 39.2 °F 62% 30.15 in 10.0 mi South 3.5 mph - N/A   Overcast
11:35 PM 51.8 °F 39.2 °F 62% 30.14 in 10.0 mi SSE 3.5 mph - N/A   Overcast
11:55 PM 51.8 °F 39.2 °F 62% 30.14 in 10.0 mi South 3.5 mph - N/A   Overcast